Weather History for Chester, CT

Change the Weather History Date:

Thursday, June 20, 2013

  Actual Average (KHVN) Record (KHVN)
Temperature  
Mean Temperature 65 °F -  
Max Temperature 77 °F 76 °F 94 °F (1987)
Min Temperature 53 °F 60 °F 51 °F (2005)
Growing Degree Days 15 (Base 50)    
Moisture  
Dew Point 49 °F    
Average Humidity 56    
Maximum Humidity 88    
Minimum Humidity 35    
Precipitation  
Precipitation 0.00 in - - ()
Sea Level Pressure  
Sea Level Pressure 30.26 in    
Wind  
Wind Speed 4 mph (WSW)    
Max Wind Speed 10 mph    
Max Gust Speed 17 mph    
Visibility 10 miles    
Events      
Averages and records for this station are not official NWS values.
T = Trace of Precipitation, MM = Missing Value Source: NWS Daily Summary

Daily Weather History Graph

Daily Weather History Graph

Search for Another Location

Airport:

Trip Planner

Search our weather history database for the weather conditions in past years. The results will help you decide how hot, cold, wet, or windy it might be!

Date:

Astronomy

Jun. 20, 2013 Rise Set
Actual Time 5:16 AM EDT 8:26 PM EDT
Civil Twilight 4:42 AM EDT 9:00 PM EDT
Nautical Twilight 3:58 AM EDT 9:44 PM EDT
Astronomical Twilight 3:06 AM EDT 10:36 PM EDT
Moon 5:24 PM EDT (6/20) 2:42 AM EDT (6/20)
Length of Visible Light 16h 18m
Length of Day
15h 10m
Waxing Gibbous, 89% of the Moon is Illuminated
Jun 20
Waxing Gibbous
Jun 23
Full
Jun 30
Last Quarter
Jul 8
New
Jul 15
First Quarter

Hourly Weather History & Observations

Time (EDT) Temp. Dew Point Humidity Pressure Visibility Wind Dir Wind Speed Gust Speed Precip Events Conditions
12:15 AM 59.0 °F 42.8 °F 55% 30.19 in 10.0 mi NNW 3.5 mph - N/A   Clear
12:35 AM 57.2 °F 44.6 °F 63% 30.18 in 10.0 mi NNW 3.5 mph - N/A   Clear
12:55 AM 57.2 °F 44.6 °F 63% 30.18 in 10.0 mi Calm Calm - N/A   Clear
1:15 AM 57.2 °F 42.8 °F 59% 30.19 in 10.0 mi NW 3.5 mph - N/A   Clear
1:35 AM 57.2 °F 41.0 °F 55% 30.20 in 10.0 mi West 3.5 mph - N/A   Partly Cloudy
1:55 AM 57.2 °F 42.8 °F 59% 30.20 in 10.0 mi West 3.5 mph - N/A   Mostly Cloudy
2:15 AM 57.2 °F 44.6 °F 63% 30.20 in 10.0 mi West 3.5 mph - N/A   Mostly Cloudy
2:35 AM 55.4 °F 44.6 °F 67% 30.20 in 10.0 mi West 4.6 mph - N/A   Mostly Cloudy
2:55 AM 55.4 °F 42.8 °F 63% 30.20 in 10.0 mi Calm Calm - N/A   Partly Cloudy
3:15 AM 53.6 °F 44.6 °F 72% 30.21 in 10.0 mi Calm Calm - N/A   Partly Cloudy
3:35 AM 55.4 °F 42.8 °F 63% 30.21 in 10.0 mi West 3.5 mph - N/A   Partly Cloudy
3:55 AM 53.6 °F 44.6 °F 72% 30.22 in 10.0 mi WNW 3.5 mph - N/A   Clear
4:15 AM 55.4 °F 41.0 °F 58% 30.22 in 10.0 mi WNW 3.5 mph - N/A   Clear
4:35 AM 53.6 °F 44.6 °F 72% 30.23 in 10.0 mi NW 3.5 mph - N/A   Clear
4:55 AM 53.6 °F 44.6 °F 72% 30.24 in 10.0 mi NW 3.5 mph - N/A   Clear
5:15 AM 53.6 °F 44.6 °F 72% 30.24 in 9.0 mi Calm Calm - N/A   Clear
5:35 AM 53.6 °F 46.4 °F 77% 30.25 in 10.0 mi NNW 3.5 mph - N/A   Clear
5:55 AM 55.4 °F 46.4 °F 72% 30.26 in 10.0 mi NNW 3.5 mph - N/A   Clear
6:15 AM 57.2 °F 46.4 °F 67% 30.27 in 10.0 mi NW 3.5 mph - N/A   Clear
6:35 AM 59.0 °F 44.6 °F 59% 30.27 in 10.0 mi NNW 4.6 mph - N/A   Clear
6:55 AM 60.8 °F 46.4 °F 59% 30.27 in 10.0 mi Calm Calm - N/A   Clear
7:15 AM 62.6 °F 46.4 °F 55% 30.27 in 10.0 mi Calm Calm - N/A   Clear
7:35 AM 66.2 °F 46.4 °F 49% 30.28 in 10.0 mi Calm Calm - N/A   Clear
7:55 AM 66.2 °F 46.4 °F 49% 30.28 in 10.0 mi Calm Calm - N/A   Clear
8:15 AM 69.8 °F 46.4 °F 43% 30.28 in - Calm Calm - N/A   Clear
8:35 AM 69.8 °F 44.6 °F 40% 30.28 in - WNW 3.5 mph - N/A   Clear
8:55 AM 69.8 °F 41.0 °F 35% 30.28 in - WSW 3.5 mph - N/A   Clear
9:15 AM 71.6 °F 42.8 °F 35% 30.27 in - Calm Calm - N/A   Clear
9:35 AM 71.6 °F 44.6 °F 38% 30.27 in - South 3.5 mph - N/A   Clear
9:55 AM 71.6 °F 46.4 °F 41% 30.28 in - South 4.6 mph - N/A   Clear
10:15 AM 71.6 °F 46.4 °F 41% 30.28 in - WSW 3.5 mph - N/A   Clear
10:35 AM 71.6 °F 48.2 °F 43% 30.28 in - SW 3.5 mph - N/A   Clear
10:55 AM 73.4 °F 48.2 °F 41% 30.28 in - WSW 9.2 mph - N/A   Clear
11:15 AM 73.4 °F 44.6 °F 36% 30.28 in - South 8.1 mph - N/A   Clear
11:35 AM 73.4 °F 48.2 °F 41% 30.29 in - WSW 8.1 mph - N/A   Clear
11:55 AM 73.4 °F 48.2 °F 41% 30.28 in - WSW 10.4 mph - N/A   Clear
12:15 PM 73.4 °F 48.2 °F 41% 30.28 in - SW 9.2 mph - N/A   Clear
12:35 PM 73.4 °F 48.2 °F 41% 30.28 in - SW 9.2 mph - N/A   Clear
12:55 PM 73.4 °F 48.2 °F 41% 30.27 in - WSW 5.8 mph - N/A   Clear
1:15 PM 73.4 °F 50.0 °F 44% 30.27 in - SW 6.9 mph - N/A   Clear
1:35 PM 75.2 °F 50.0 °F 41% 30.27 in - SSW 8.1 mph - N/A   Clear
1:55 PM 75.2 °F 50.0 °F 41% 30.27 in - SSW 8.1 mph - N/A   Clear
2:15 PM 75.2 °F 50.0 °F 41% 30.26 in - WSW 9.2 mph - N/A   Clear
2:35 PM 75.2 °F 48.2 °F 38% 30.26 in - SW 6.9 mph - N/A   Clear
2:55 PM 77.0 °F 50.0 °F 39% 30.26 in - WSW 6.9 mph - N/A   Clear
3:15 PM 75.2 °F 48.2 °F 38% 30.26 in - West 6.9 mph - N/A   Clear
3:35 PM 75.2 °F 48.2 °F 38% 30.26 in - SSW 8.1 mph - N/A   Clear
3:55 PM 75.2 °F 50.0 °F 41% 30.26 in - SW 6.9 mph - N/A   Clear
4:15 PM 75.2 °F 51.8 °F 44% 30.25 in - SW 8.1 mph - N/A   Clear
4:35 PM 75.2 °F 51.8 °F 44% 30.25 in - SW 6.9 mph - N/A   Clear
4:55 PM 75.2 °F 55.4 °F 50% 30.25 in - SSW 10.4 mph - N/A   Clear
5:15 PM 73.4 °F 55.4 °F 53% 30.25 in - SSW 8.1 mph 17.3 mph N/A   Clear
5:35 PM 71.6 °F 55.4 °F 57% 30.26 in - SSW 8.1 mph - N/A   Clear
5:55 PM 71.6 °F 55.4 °F 57% 30.26 in - SSW 9.2 mph - N/A   Clear
6:15 PM 71.6 °F 55.4 °F 57% 30.26 in - SSW 8.1 mph - N/A   Clear
6:35 PM 69.8 °F 53.6 °F 56% 30.26 in - SSW 10.4 mph - N/A   Clear
6:55 PM 69.8 °F 53.6 °F 56% 30.27 in - SW 8.1 mph - N/A   Clear
7:15 PM 68.0 °F 51.8 °F 56% 30.27 in - SW 10.4 mph - N/A   Clear
7:35 PM 66.2 °F 51.8 °F 60% 30.27 in 10.0 mi SW 6.9 mph - N/A   Clear
7:55 PM 66.2 °F 51.8 °F 60% 30.27 in 10.0 mi SSW 8.1 mph - N/A   Clear
8:15 PM 64.4 °F 51.8 °F 64% 30.27 in 10.0 mi SSW 6.9 mph - N/A   Clear
8:35 PM 64.4 °F 53.6 °F 68% 30.28 in 10.0 mi SW 8.1 mph - N/A   Clear
8:55 PM 64.4 °F 53.6 °F 68% 30.29 in 10.0 mi SW 5.8 mph - N/A   Clear
9:15 PM 62.6 °F 53.6 °F 72% 30.29 in 10.0 mi SSW 5.8 mph - N/A   Clear
9:35 PM 62.6 °F 55.4 °F 77% 30.29 in 10.0 mi SSW 6.9 mph - N/A   Clear
9:55 PM 62.6 °F 55.4 °F 77% 30.28 in 10.0 mi SW 8.1 mph - N/A   Clear
10:15 PM 62.6 °F 55.4 °F 77% 30.28 in 10.0 mi SSW 6.9 mph - N/A   Clear
10:35 PM 62.6 °F 57.2 °F 82% 30.29 in 10.0 mi SSW 6.9 mph - N/A   Clear
10:55 PM 60.8 °F 57.2 °F 88% 30.29 in 10.0 mi SSW 5.8 mph - N/A   Clear
11:15 PM 60.8 °F 57.2 °F 88% 30.29 in 10.0 mi SSW 5.8 mph - N/A   Clear
11:35 PM 60.8 °F 57.2 °F 88% 30.29 in 10.0 mi SSW 5.8 mph - N/A   Clear
11:55 PM 60.8 °F 57.2 °F 88% 30.30 in 10.0 mi SSW 5.8 mph - N/A   Clear